Back to catalog

STARLINK-30274

AliveCommunicationsVLEO
NORAD 57672·PAYLOAD·🇺🇸 United States

Launched Aug 22, 2023 from Vandenberg Space Force Base

Loading…

Next Passes (next 24 hours)

TLE

FreshSource: CelesTrak SupGP

Epoch: Sep 14, 2026, 20:43 UTC

1 57672C 23124K   26257.86368056  .00045823  00000+0  13545-2 0  2571
2 57672  53.1585  45.7352 0001264  82.9969 344.4311 15.34353755    10

Track STARLINK-30274 in real time with AllMySat

Download on the App Store